Flag for U.S.A. Weather past 2 weeks in New York, New York, U.S.A.

Now
61 °F

Sunny.


Feels Like: 61 °F
Forecast: 52 / 70 °F
Wind: 10 mph from Northwest

Location: New York City - Central Park

Current Time: Sep 22, 2014 at 8:30:20 PM

Latest Report: Sep 22, 2014 at 7:51 PM


Visibility: 10 mi

Pressure: 30.07 "Hg

Humidity: 46%

Dew point: 40 °F

Location of New YorkLocation

Historic Weather in New York — Graph

°F

New York temperature yesterday

Maximum temperature yesterday: 75 °F (at 4:51 PM)
Minimum temperature yesterday: 67 °F (at 3:04 AM)
Average temperature yesterday: 71 °F

Past Weeks' High & Low Weather Summary

 TemperatureHumidityPressure
High83 °F (Sep 11, 4:51 PM)93% (Sep 13, 3:51 PM)30.38 "Hg (Sep 13, 3:51 PM)
Low53 °F (Sep 14, 6:51 AM)31% (Sep 18, 5:51 PM)29.61 "Hg (Sep 21, 6:51 PM)
Average67 °F62%30.09 "Hg
* Reported Sep 7 6:51 PM — Sep 22 6:51 PM, New York, Weather by CustomWeather, © 2014

Note: Actual official high and low records may vary slightly from our data, if they occured in-between our weather recording intervals... More about our weather records

Advertising

New York weather history for previous 24 hours

 ConditionsComfort  
Time TempWeatherWind HumidityBarometerVisibility
6:51 PM
Sep 22
62 °FSunny.7 mph44%30.03 "Hg10 mi
5:51 PM65 °FSunny.8 mph44%29.99 "Hg10 mi
4:51 PM67 °FSunny.10 mph42%29.95 "Hg10 mi
3:51 PM69 °FScattered clouds.10 mph39%29.92 "Hg10 mi
2:51 PM69 °FPassing clouds.8 mph44%29.92 "Hg10 mi
1:51 PM68 °FOvercast.6 mph47%29.90 "Hg10 mi
12:51 PM68 °FOvercast.7 mph47%29.90 "Hg10 mi
11:51 AM68 °FOvercast.8 mph49%29.88 "Hg10 mi
10:51 AM68 °FScattered clouds.7 mph49%29.87 "Hg10 mi
9:51 AM66 °FPartly sunny.7 mph59%29.87 "Hg10 mi
8:51 AM65 °FSunny.5 mph61%29.83 "Hg10 mi
7:51 AM64 °FSunny.9 mph65%29.80 "Hg10 mi
6:51 AM64 °FClear.7 mph68%29.77 "Hg10 mi
5:51 AM64 °FClear.No wind70%29.73 "Hg10 mi
4:51 AM66 °FClear.6 mph73%29.70 "Hg10 mi
3:51 AM67 °FPassing clouds.6 mph71%29.68 "Hg10 mi
2:51 AM68 °FPassing clouds.5 mph68%29.67 "Hg10 mi
1:51 AM68 °FPassing clouds.7 mph76%29.66 "Hg10 mi
1:01 AM70 °FLight rain. Overcast.6 mph87%29.67 "Hg7 mi
11:51 PM
Sep 21
72 °FPassing clouds.5 mph78%29.62 "Hg10 mi
10:51 PM71 °FClear.3 mph87%29.62 "Hg9 mi
9:51 PM71 °FClear.5 mph81%29.62 "Hg10 mi
8:51 PM71 °FClear.3 mph81%29.62 "Hg10 mi
Weather by CustomWeather, © 2014

See weather overviewHow to use our weather pages